{"data":{"norad_id":53911,"intl_designator":"2022-119AB","name":"STARLINK-5048","alt_names":[],"object_type":"PAYLOAD","status":"ACTIVE","operator":null,"country":"US","launch_date":"2022-09-24","launch_site_code":"AFETR","launch_vehicle":null,"mission":null,"orbit_class":"UNKNOWN","rcs_meters":null,"size_class":null,"mass_kg":null,"dimensions":null,"purposes":["comms"],"wikipedia_slug":null,"has_3d_model":false,"image_url":null,"decayed_at":null,"tle_current":{"epoch":"2026-09-20T07:29:11.315328Z","epoch_age_seconds":102980,"freshness":"FRESH","line1":"1 53911U 22119AB  26263.31193652  .00000139  00000+0  26851-4 0  9991","line2":"2 53911  53.1604 159.9465 0001466 100.9419 259.1737 15.08836112221206","mean_motion":15.08836112,"eccentricity":0.0001466,"inclination_deg":53.1604,"raan_deg":159.9465,"arg_perigee_deg":100.9419,"mean_anomaly_deg":259.1737,"bstar":2.6851e-5,"rev_number":22120,"period_min":95.437800603224,"perigee_km":538.74111004298,"apogee_km":540.76943605744,"semimajor_km":6917.8922730502,"source":"CELESTRAK","updated_at":"2026-09-21T09:00:33.032955Z"}}}